Time,TemperatureF,DewpointF,PressureIn,WindDirection,WindDirectionDegrees,WindSpeedMPH,WindSpeedGustMPH,Humidity,HourlyPrecipIn,Conditions,Clouds,dailyrainin,SoftwareType,DateUTC
2013-03-02 00:02:00,52.3,52.3,30.23,SE,144,0.0,0.0,100,0.00,,,0.00,Wunderground v.1.15,2013-03-02 08:02:00,
2013-03-02 00:07:00,52.3,52.3,30.23,SE,144,0.0,0.0,100,0.00,,,0.00,Wunderground v.1.15,2013-03-02 08:07:00,
2013-03-02 00:17:00,52.2,52.2,30.23,SE,144,0.0,0.0,100,0.00,,,0.00,Wunderground v.1.15,2013-03-02 08:17:00,
2013-03-02 00:22:00,52.0,52.0,30.23,SE,144,0.0,0.0,100,0.00,,,0.00,Wunderground v.1.15,2013-03-02 08:22:00,
2013-03-02 00:32:00,51.9,51.9,30.23,SE,144,0.0,0.0,100,0.00,,,0.00,Wunderground v.1.15,2013-03-02 08:32:00,
2013-03-02 00:42:00,51.7,51.7,30.23,SE,144,0.0,0.0,100,0.00,,,0.00,Wunderground v.1.15,2013-03-02 08:42:00,
2013-03-02 00:47:00,51.6,51.6,30.22,SE,144,0.0,0.0,100,0.00,,,0.00,Wunderground v.1.15,2013-03-02 08:47:00,
2013-03-02 00:57:00,51.4,51.4,30.22,SE,144,0.0,0.0,100,0.00,,,0.00,Wunderground v.1.15,2013-03-02 08:57:00,
2013-03-02 01:02:00,51.4,51.4,30.22,SE,144,0.0,0.0,100,0.00,,,0.00,Wunderground v.1.15,2013-03-02 09:02:00,
2013-03-02 01:12:00,51.0,51.0,30.22,SE,144,0.0,0.0,100,0.00,,,0.00,Wunderground v.1.15,2013-03-02 09:12:00,
2013-03-02 01:17:00,50.5,50.5,30.22,SSE,150,0.0,0.0,100,0.00,,,0.00,Wunderground v.1.15,2013-03-02 09:17:00,
2013-03-02 01:27:00,50.1,50.1,30.22,SSE,150,0.0,0.0,100,0.00,,,0.00,Wunderground v.1.15,2013-03-02 09:27:00,
2013-03-02 01:32:00,49.8,49.8,30.22,SSE,150,0.0,0.0,100,0.00,,,0.00,Wunderground v.1.15,2013-03-02 09:32:00,
2013-03-02 01:42:00,49.5,49.5,30.22,SSE,150,0.0,0.0,100,0.00,,,0.00,Wunderground v.1.15,2013-03-02 09:42:00,
2013-03-02 01:47:00,49.6,49.6,30.22,SSE,150,0.0,0.0,100,0.00,,,0.00,Wunderground v.1.15,2013-03-02 09:47:00,
2013-03-02 01:57:00,50.1,50.1,30.22,North,356,0.0,0.0,100,0.00,,,0.00,Wunderground v.1.15,2013-03-02 09:57:00,
2013-03-02 02:12:00,49.6,49.6,30.22,North,350,0.0,0.0,100,0.00,,,0.00,Wunderground v.1.15,2013-03-02 10:12:00,
2013-03-02 02:22:00,49.1,49.1,30.21,North,350,0.0,0.0,100,0.00,,,0.00,Wunderground v.1.15,2013-03-02 10:22:00,
2013-03-02 02:27:00,49.2,49.2,30.21,North,350,0.0,0.0,100,0.00,,,0.00,Wunderground v.1.15,2013-03-02 10:27:00,
2013-03-02 02:37:00,49.2,49.2,30.20,North,350,0.0,0.0,100,0.00,,,0.00,Wunderground v.1.15,2013-03-02 10:37:00,
2013-03-02 02:42:00,49.4,49.4,30.20,North,350,0.0,0.0,100,0.00,,,0.00,Wunderground v.1.15,2013-03-02 10:42:00,
2013-03-02 02:52:00,49.2,49.2,30.20,North,350,0.0,0.0,100,0.00,,,0.00,Wunderground v.1.15,2013-03-02 10:52:00,
2013-03-02 03:02:00,49.1,49.1,30.19,North,350,0.0,3.0,100,0.00,,,0.00,Wunderground v.1.15,2013-03-02 11:02:00,
2013-03-02 03:07:00,48.9,48.9,30.19,North,350,0.0,3.0,100,0.00,,,0.00,Wunderground v.1.15,2013-03-02 11:07:00,
2013-03-02 03:17:00,48.8,48.8,30.18,North,350,0.0,0.0,100,0.00,,,0.00,Wunderground v.1.15,2013-03-02 11:17:00,
2013-03-02 03:22:00,48.6,48.6,30.18,North,350,0.0,0.0,100,0.00,,,0.00,Wunderground v.1.15,2013-03-02 11:22:00,
2013-03-02 03:32:00,48.6,48.6,30.17,North,349,0.0,0.0,100,0.00,,,0.00,Wunderground v.1.15,2013-03-02 11:32:00,
2013-03-02 03:42:00,48.5,48.5,30.17,North,349,0.0,0.0,100,0.00,,,0.00,Wunderground v.1.15,2013-03-02 11:42:00,
2013-03-02 03:52:00,48.5,48.5,30.17,North,349,0.0,0.0,100,0.00,,,0.00,Wunderground v.1.15,2013-03-02 11:52:00,
2013-03-02 03:57:00,48.5,48.5,30.17,North,349,0.0,0.0,100,0.00,,,0.00,Wunderground v.1.15,2013-03-02 11:57:00,
2013-03-02 04:07:00,48.6,48.6,30.17,North,349,0.0,0.0,100,0.00,,,0.00,Wunderground v.1.15,2013-03-02 12:07:00,
2013-03-02 04:12:00,48.5,48.5,30.17,North,349,0.0,0.0,100,0.00,,,0.00,Wunderground v.1.15,2013-03-02 12:12:00,
2013-03-02 04:22:00,48.3,48.3,30.17,North,349,0.0,0.0,100,0.00,,,0.00,Wunderground v.1.15,2013-03-02 12:22:00,
2013-03-02 04:32:00,48.3,48.3,30.16,North,349,0.0,0.0,100,0.00,,,0.00,Wunderground v.1.15,2013-03-02 12:32:00,
2013-03-02 04:37:00,48.2,48.2,30.16,North,349,0.0,0.0,100,0.00,,,0.00,Wunderground v.1.15,2013-03-02 12:37:00,
2013-03-02 04:47:00,48.2,48.2,30.16,North,349,0.0,0.0,100,0.00,,,0.00,Wunderground v.1.15,2013-03-02 12:47:00,
2013-03-02 04:57:00,48.0,48.0,30.16,North,349,0.0,0.0,100,0.00,,,0.00,Wunderground v.1.15,2013-03-02 12:57:00,
2013-03-02 05:02:00,48.2,48.2,30.16,North,349,0.0,0.0,100,0.00,,,0.00,Wunderground v.1.15,2013-03-02 13:02:00,
2013-03-02 05:12:00,48.0,48.0,30.16,North,349,0.0,0.0,100,0.00,,,0.00,Wunderground v.1.15,2013-03-02 13:12:00,
2013-03-02 05:17:00,48.0,48.0,30.15,North,349,0.0,0.0,100,0.00,,,0.00,Wunderground v.1.15,2013-03-02 13:17:00,
2013-03-02 05:27:00,48.2,48.2,30.15,North,349,0.0,0.0,100,0.00,,,0.00,Wunderground v.1.15,2013-03-02 13:27:00,
2013-03-02 05:37:00,48.2,48.2,30.15,North,349,0.0,0.0,100,0.00,,,0.00,Wunderground v.1.15,2013-03-02 13:37:00,
2013-03-02 05:42:00,48.0,48.0,30.15,North,349,0.0,0.0,100,0.00,,,0.00,Wunderground v.1.15,2013-03-02 13:42:00,
2013-03-02 05:52:00,48.2,48.2,30.15,North,349,0.0,0.0,100,0.00,,,0.00,Wunderground v.1.15,2013-03-02 13:52:00,
2013-03-02 06:02:00,48.0,48.0,30.14,North,349,0.0,0.0,100,0.00,,,0.00,Wunderground v.1.15,2013-03-02 14:02:00,
2013-03-02 06:07:00,47.9,47.9,30.14,North,349,0.0,0.0,100,0.00,,,0.00,Wunderground v.1.15,2013-03-02 14:07:00,
2013-03-02 06:17:00,48.3,48.3,30.14,North,349,0.0,0.0,100,0.00,,,0.00,Wunderground v.1.15,2013-03-02 14:17:00,
2013-03-02 06:22:00,48.5,48.5,30.14,North,359,0.0,0.0,100,0.00,,,0.00,Wunderground v.1.15,2013-03-02 14:22:00,
2013-03-02 06:32:00,48.5,48.5,30.14,North,359,0.0,0.0,100,0.00,,,0.00,Wunderground v.1.15,2013-03-02 14:32:00,
2013-03-02 06:37:00,48.6,48.6,30.14,North,359,0.0,0.0,100,0.00,,,0.00,Wunderground v.1.15,2013-03-02 14:37:00,
2013-03-02 06:47:00,47.9,47.9,30.14,North,359,0.0,0.0,100,0.00,,,0.00,Wunderground v.1.15,2013-03-02 14:47:00,
2013-03-02 06:57:00,47.9,47.9,30.14,North,359,0.0,0.0,100,0.00,,,0.00,Wunderground v.1.15,2013-03-02 14:57:00,
2013-03-02 07:07:00,48.0,48.0,30.14,North,359,0.0,0.0,100,0.00,,,0.00,Wunderground v.1.15,2013-03-02 15:07:00,
2013-03-02 07:17:00,48.0,48.0,30.15,North,359,0.0,0.0,100,0.00,,,0.00,Wunderground v.1.15,2013-03-02 15:17:00,
2013-03-02 07:27:00,48.0,48.0,30.15,North,359,0.0,0.0,100,0.00,,,0.00,Wunderground v.1.15,2013-03-02 15:27:00,
2013-03-02 07:37:00,47.9,47.9,30.14,North,359,0.0,0.0,100,0.00,,,0.00,Wunderground v.1.15,2013-03-02 15:37:00,
2013-03-02 07:47:00,47.9,47.9,30.14,North,359,0.0,0.0,100,0.00,,,0.00,Wunderground v.1.15,2013-03-02 15:47:00,
2013-03-02 07:52:00,47.9,47.9,30.14,North,359,0.0,0.0,100,0.00,,,0.00,Wunderground v.1.15,2013-03-02 15:52:00,
2013-03-02 08:02:00,47.9,47.9,30.14,North,359,0.0,0.0,100,0.00,,,0.00,Wunderground v.1.15,2013-03-02 16:02:00,
2013-03-02 08:12:00,48.0,48.0,30.14,North,359,0.0,0.0,100,0.00,,,0.00,Wunderground v.1.15,2013-03-02 16:12:00,
2013-03-02 08:17:00,48.2,48.2,30.14,North,359,0.0,0.0,100,0.00,,,0.00,Wunderground v.1.15,2013-03-02 16:17:00,
2013-03-02 08:27:00,48.5,48.5,30.14,North,359,0.0,0.0,100,0.00,,,0.00,Wunderground v.1.15,2013-03-02 16:27:00,
2013-03-02 08:32:00,48.5,48.5,30.14,North,359,0.0,0.0,100,0.00,,,0.00,Wunderground v.1.15,2013-03-02 16:32:00,
2013-03-02 08:42:00,48.5,48.5,30.14,North,359,0.0,0.0,100,0.00,,,0.00,Wunderground v.1.15,2013-03-02 16:42:00,
2013-03-02 08:52:00,48.5,48.5,30.14,North,359,0.0,0.0,100,0.00,,,0.00,Wunderground v.1.15,2013-03-02 16:52:00,
2013-03-02 08:57:00,48.6,48.6,30.14,North,359,0.0,0.0,100,0.00,,,0.00,Wunderground v.1.15,2013-03-02 16:57:00,
2013-03-02 09:07:00,48.9,48.9,30.14,North,359,0.0,0.0,100,0.00,,,0.00,Wunderground v.1.15,2013-03-02 17:07:00,
2013-03-02 09:12:00,49.1,49.1,30.14,North,359,0.0,0.0,100,0.00,,,0.00,Wunderground v.1.15,2013-03-02 17:12:00,
2013-03-02 09:22:00,49.4,49.4,30.13,North,359,0.0,0.0,100,0.00,,,0.00,Wunderground v.1.15,2013-03-02 17:22:00,
2013-03-02 09:27:00,49.5,49.5,30.13,North,359,0.0,0.0,100,0.00,,,0.00,Wunderground v.1.15,2013-03-02 17:27:00,
2013-03-02 09:37:00,49.5,49.5,30.13,North,359,0.0,0.0,100,0.00,,,0.00,Wunderground v.1.15,2013-03-02 17:37:00,
2013-03-02 09:47:00,49.8,49.8,30.13,North,359,0.0,0.0,100,0.00,,,0.00,Wunderground v.1.15,2013-03-02 17:47:00,
2013-03-02 09:57:00,50.2,50.2,30.13,North,359,0.0,0.0,100,0.00,,,0.00,Wunderground v.1.15,2013-03-02 17:57:00,
2013-03-02 10:02:00,50.7,50.7,30.13,North,359,0.0,0.0,100,0.00,,,0.00,Wunderground v.1.15,2013-03-02 18:02:00,
2013-03-02 10:07:00,50.5,50.5,30.13,NW,325,0.0,0.0,100,0.00,,,0.00,Wunderground v.1.15,2013-03-02 18:07:00,
2013-03-02 10:17:00,51.3,51.3,30.13,NW,325,0.0,0.0,100,0.00,,,0.00,Wunderground v.1.15,2013-03-02 18:17:00,
2013-03-02 10:27:00,51.7,51.7,30.13,NW,325,0.0,0.0,100,0.00,,,0.00,Wunderground v.1.15,2013-03-02 18:27:00,
2013-03-02 10:32:00,52.0,52.0,30.12,NW,325,0.0,0.0,100,0.00,,,0.00,Wunderground v.1.15,2013-03-02 18:32:00,
2013-03-02 10:42:00,52.8,52.8,30.12,NW,325,0.0,1.0,100,0.00,,,0.00,Wunderground v.1.15,2013-03-02 18:42:00,
2013-03-02 10:52:00,53.5,53.5,30.12,SSE,167,0.0,0.0,100,0.00,,,0.00,Wunderground v.1.15,2013-03-02 18:52:00,
2013-03-02 11:02:00,54.1,54.1,30.12,SSE,160,0.0,0.0,100,0.00,,,0.00,Wunderground v.1.15,2013-03-02 19:02:00,
2013-03-02 11:12:00,54.2,54.2,30.12,SSE,167,0.0,0.0,100,0.00,,,0.00,Wunderground v.1.15,2013-03-02 19:12:00,
2013-03-02 11:22:00,54.4,54.4,30.12,ESE,114,0.0,2.0,100,0.00,,,0.00,Wunderground v.1.15,2013-03-02 19:22:00,
2013-03-02 11:32:00,54.5,54.5,30.11,SSE,164,0.0,0.0,100,0.00,,,0.00,Wunderground v.1.15,2013-03-02 19:32:00,
2013-03-02 11:42:00,55.0,55.0,30.11,SSE,157,1.0,1.0,100,0.00,,,0.00,Wunderground v.1.15,2013-03-02 19:42:00,
2013-03-02 11:47:00,55.1,55.1,30.11,SE,143,1.0,1.0,100,0.00,,,0.00,Wunderground v.1.15,2013-03-02 19:47:00,
2013-03-02 11:57:00,55.4,55.4,30.11,SSE,157,0.0,1.0,100,0.00,,,0.00,Wunderground v.1.15,2013-03-02 19:57:00,
2013-03-02 12:02:00,55.6,55.6,30.11,SSE,158,0.0,6.0,100,0.00,,,0.00,Wunderground v.1.15,2013-03-02 20:02:00,
2013-03-02 12:07:00,55.4,55.4,30.11,SSE,154,1.0,6.0,100,0.00,,,0.00,Wunderground v.1.15,2013-03-02 20:07:00,
2013-03-02 12:17:00,55.1,55.1,30.11,South,175,0.0,1.0,100,0.00,,,0.00,Wunderground v.1.15,2013-03-02 20:17:00,
2013-03-02 12:27:00,54.8,54.8,30.11,SE,133,1.0,2.0,100,0.00,,,0.00,Wunderground v.1.15,2013-03-02 20:27:00,
2013-03-02 12:32:00,54.8,54.8,30.11,SE,131,1.0,1.0,100,0.00,,,0.00,Wunderground v.1.15,2013-03-02 20:32:00,
2013-03-02 12:42:00,54.8,54.8,30.11,South,169,2.0,5.0,100,0.00,,,0.00,Wunderground v.1.15,2013-03-02 20:42:00,
2013-03-02 12:52:00,54.8,54.8,30.10,SE,143,2.0,5.0,100,0.00,,,0.00,Wunderground v.1.15,2013-03-02 20:52:00,
2013-03-02 13:02:00,54.8,54.8,30.09,SW,222,3.0,3.0,100,0.00,,,0.00,Wunderground v.1.15,2013-03-02 21:02:00,
2013-03-02 13:12:00,55.0,55.0,30.09,South,176,2.0,2.0,100,0.00,,,0.00,Wunderground v.1.15,2013-03-02 21:12:00,
2013-03-02 13:22:00,54.8,54.8,30.09,SSE,164,2.0,2.0,100,0.00,,,0.00,Wunderground v.1.15,2013-03-02 21:22:00,
2013-03-02 13:32:00,55.1,55.1,30.08,SSE,154,1.0,2.0,100,0.00,,,0.00,Wunderground v.1.15,2013-03-02 21:32:00,
2013-03-02 13:42:00,55.6,55.6,30.08,SSE,164,2.0,6.0,100,0.00,,,0.00,Wunderground v.1.15,2013-03-02 21:42:00,
2013-03-02 13:47:00,55.7,55.7,30.08,South,189,2.0,6.0,100,0.00,,,0.00,Wunderground v.1.15,2013-03-02 21:47:00,
2013-03-02 13:57:00,55.9,55.1,30.08,SSE,165,2.0,2.0,97,0.00,,,0.00,Wunderground v.1.15,2013-03-02 21:57:00,
2013-03-02 14:07:00,55.7,55.7,30.07,South,175,2.0,2.0,100,0.00,,,0.00,Wunderground v.1.15,2013-03-02 22:07:00,
2013-03-02 14:17:00,55.4,55.4,30.07,South,172,1.0,2.0,100,0.00,,,0.00,Wunderground v.1.15,2013-03-02 22:17:00,
2013-03-02 14:27:00,55.3,55.3,30.07,South,175,2.0,2.0,100,0.00,,,0.00,Wunderground v.1.15,2013-03-02 22:27:00,
2013-03-02 14:37:00,54.7,54.7,30.07,SSE,155,2.0,2.0,100,0.00,,,0.00,Wunderground v.1.15,2013-03-02 22:37:00,
2013-03-02 14:47:00,54.2,54.2,30.07,SSE,160,1.0,2.0,100,0.00,,,0.01,Wunderground v.1.15,2013-03-02 22:47:00,
2013-03-02 14:52:00,54.2,54.2,30.07,South,178,0.0,0.0,100,0.00,,,0.01,Wunderground v.1.15,2013-03-02 22:52:00,
2013-03-02 15:02:00,54.4,54.4,30.07,South,189,1.0,1.0,100,0.00,,,0.01,Wunderground v.1.15,2013-03-02 23:02:00,
2013-03-02 15:07:00,54.4,54.4,30.07,SSE,157,0.0,1.0,100,0.00,,,0.01,Wunderground v.1.15,2013-03-02 23:07:00,
2013-03-02 15:12:00,54.2,54.2,30.07,SSE,164,0.0,0.0,100,0.00,,,0.01,Wunderground v.1.15,2013-03-02 23:12:00,
2013-03-02 15:22:00,54.1,54.1,30.07,SSE,158,0.0,1.0,100,0.00,,,0.01,Wunderground v.1.15,2013-03-02 23:22:00,
2013-03-02 15:27:00,53.9,53.9,30.07,SSE,162,1.0,1.0,100,0.00,,,0.01,Wunderground v.1.15,2013-03-02 23:27:00,
2013-03-02 15:37:00,51.9,51.9,30.08,WNW,289,6.0,6.0,100,0.00,,,0.01,Wunderground v.1.15,2013-03-02 23:37:00,
2013-03-02 15:47:00,51.0,51.0,30.08,WSW,250,4.0,12.0,100,0.00,,,0.01,Wunderground v.1.15,2013-03-02 23:47:00,
2013-03-02 15:52:00,50.5,50.5,30.08,West,261,5.0,5.0,100,0.00,,,0.02,Wunderground v.1.15,2013-03-02 23:52:00,
2013-03-02 16:02:00,49.9,49.9,30.08,SW,219,6.0,14.0,100,0.06,,,0.03,Wunderground v.1.15,2013-03-03 00:02:00,
2013-03-02 16:07:00,49.8,49.8,30.08,WSW,241,6.0,14.0,100,0.04,,,0.03,Wunderground v.1.15,2013-03-03 00:07:00,
2013-03-02 16:12:00,49.6,49.6,30.08,SW,229,5.0,5.0,100,0.00,,,0.03,Wunderground v.1.15,2013-03-03 00:12:00,
2013-03-02 16:22:00,49.5,49.5,30.09,NW,308,4.0,4.0,100,0.00,,,0.03,Wunderground v.1.15,2013-03-03 00:22:00,
2013-03-02 16:32:00,49.2,49.2,30.09,West,267,4.0,4.0,100,0.00,,,0.03,Wunderground v.1.15,2013-03-03 00:32:00,
2013-03-02 16:37:00,49.1,49.1,30.09,WNW,299,4.0,4.0,100,0.00,,,0.03,Wunderground v.1.15,2013-03-03 00:37:00,
2013-03-02 16:47:00,49.1,49.1,30.09,West,275,3.0,3.0,100,0.00,,,0.03,Wunderground v.1.15,2013-03-03 00:47:00,
2013-03-02 16:52:00,48.9,48.9,30.09,SW,234,3.0,4.0,100,0.00,,,0.03,Wunderground v.1.15,2013-03-03 00:52:00,
2013-03-02 17:02:00,48.6,48.6,30.10,West,274,3.0,3.0,100,0.00,,,0.03,Wunderground v.1.15,2013-03-03 01:02:00,
2013-03-02 17:12:00,48.6,48.6,30.10,WNW,291,3.0,4.0,100,0.00,,,0.03,Wunderground v.1.15,2013-03-03 01:12:00,
2013-03-02 17:22:00,48.2,48.2,30.11,NW,311,2.0,6.0,100,0.00,,,0.03,Wunderground v.1.15,2013-03-03 01:22:00,
2013-03-02 17:32:00,48.0,48.0,30.12,WNW,285,1.0,1.0,100,0.00,,,0.03,Wunderground v.1.15,2013-03-03 01:32:00,
2013-03-02 17:42:00,47.6,47.6,30.12,NW,315,1.0,1.0,100,0.00,,,0.03,Wunderground v.1.15,2013-03-03 01:42:00,
2013-03-02 17:52:00,47.6,47.6,30.12,WSW,256,0.0,0.0,100,0.00,,,0.03,Wunderground v.1.15,2013-03-03 01:52:00,
2013-03-02 18:02:00,47.6,47.6,30.13,West,275,0.0,13.0,100,0.00,,,0.03,Wunderground v.1.15,2013-03-03 02:02:00,
2013-03-02 18:07:00,47.6,47.6,30.13,WNW,288,0.0,13.0,100,0.00,,,0.03,Wunderground v.1.15,2013-03-03 02:07:00,
2013-03-02 18:12:00,47.6,47.6,30.13,WNW,288,0.0,0.0,100,0.00,,,0.03,Wunderground v.1.15,2013-03-03 02:12:00,
2013-03-02 18:22:00,47.6,47.6,30.13,WNW,285,0.0,0.0,100,0.00,,,0.03,Wunderground v.1.15,2013-03-03 02:22:00,
2013-03-02 18:27:00,47.4,47.4,30.13,WNW,292,0.0,0.0,100,0.00,,,0.03,Wunderground v.1.15,2013-03-03 02:27:00,
2013-03-02 18:37:00,47.3,47.3,30.13,WNW,301,1.0,7.0,100,0.00,,,0.03,Wunderground v.1.15,2013-03-03 02:37:00,
2013-03-02 18:47:00,47.1,47.1,30.14,WNW,294,1.0,2.0,100,0.00,,,0.03,Wunderground v.1.15,2013-03-03 02:47:00,
2013-03-02 18:52:00,46.8,46.8,30.14,WNW,284,2.0,10.0,100,0.00,,,0.03,Wunderground v.1.15,2013-03-03 02:52:00,
2013-03-02 19:02:00,46.8,46.8,30.14,WNW,285,5.0,8.0,100,0.00,,,0.03,Wunderground v.1.15,2013-03-03 03:02:00,
2013-03-02 19:07:00,46.7,46.7,30.14,WNW,301,4.0,8.0,100,0.00,,,0.03,Wunderground v.1.15,2013-03-03 03:07:00,
2013-03-02 19:12:00,46.5,46.5,30.14,WNW,285,4.0,4.0,100,0.00,,,0.03,Wunderground v.1.15,2013-03-03 03:12:00,
2013-03-02 19:22:00,46.4,46.4,30.14,WNW,298,0.0,0.0,100,0.00,,,0.03,Wunderground v.1.15,2013-03-03 03:22:00,
2013-03-02 19:27:00,46.2,46.2,30.14,WNW,298,0.0,0.0,100,0.00,,,0.03,Wunderground v.1.15,2013-03-03 03:27:00,
2013-03-02 19:37:00,45.8,45.8,30.14,WNW,285,0.0,0.0,100,0.00,,,0.03,Wunderground v.1.15,2013-03-03 03:37:00,
2013-03-02 19:47:00,45.5,45.5,30.14,WNW,287,1.0,1.0,100,0.00,,,0.03,Wunderground v.1.15,2013-03-03 03:47:00,
2013-03-02 19:52:00,45.5,45.5,30.14,West,272,1.0,1.0,100,0.00,,,0.03,Wunderground v.1.15,2013-03-03 03:52:00,
2013-03-02 20:02:00,45.5,45.5,30.15,West,278,0.0,11.0,100,0.00,,,0.03,Wunderground v.1.15,2013-03-03 04:02:00,
2013-03-02 20:07:00,45.7,45.7,30.15,WNW,299,0.0,11.0,100,0.00,,,0.03,Wunderground v.1.15,2013-03-03 04:07:00,
2013-03-02 20:12:00,45.4,45.4,30.15,WNW,296,0.0,0.0,100,0.00,,,0.03,Wunderground v.1.15,2013-03-03 04:12:00,
2013-03-02 20:22:00,45.1,45.1,30.15,WNW,298,0.0,0.0,100,0.00,,,0.03,Wunderground v.1.15,2013-03-03 04:22:00,
2013-03-02 20:27:00,44.9,44.9,30.15,West,281,0.0,0.0,100,0.00,,,0.03,Wunderground v.1.15,2013-03-03 04:27:00,
2013-03-02 20:37:00,44.8,44.8,30.16,West,277,0.0,0.0,100,0.00,,,0.03,Wunderground v.1.15,2013-03-03 04:37:00,
2013-03-02 20:47:00,44.9,44.9,30.16,WSW,250,0.0,0.0,100,0.00,,,0.03,Wunderground v.1.15,2013-03-03 04:47:00,
2013-03-02 20:52:00,44.9,44.9,30.16,West,275,0.0,0.0,100,0.00,,,0.03,Wunderground v.1.15,2013-03-03 04:52:00,
2013-03-02 21:02:00,45.1,45.1,30.16,West,275,0.0,1.0,100,0.00,,,0.03,Wunderground v.1.15,2013-03-03 05:02:00,
2013-03-02 21:07:00,44.6,44.6,30.16,West,275,0.0,1.0,100,0.00,,,0.03,Wunderground v.1.15,2013-03-03 05:07:00,
2013-03-02 21:12:00,44.5,44.5,30.16,West,277,0.0,0.0,100,0.00,,,0.03,Wunderground v.1.15,2013-03-03 05:12:00,
2013-03-02 21:17:00,44.3,44.3,30.16,WNW,282,0.0,0.0,100,0.00,,,0.03,Wunderground v.1.15,2013-03-03 05:17:00,
2013-03-02 21:27:00,44.1,44.1,30.16,West,277,0.0,0.0,100,0.00,,,0.03,Wunderground v.1.15,2013-03-03 05:27:00,
2013-03-02 21:32:00,43.9,43.9,30.16,West,277,0.0,0.0,100,0.00,,,0.03,Wunderground v.1.15,2013-03-03 05:32:00,
2013-03-02 21:42:00,43.8,43.8,30.16,West,277,0.0,0.0,100,0.00,,,0.03,Wunderground v.1.15,2013-03-03 05:42:00,
2013-03-02 21:47:00,44.1,44.1,30.16,WNW,302,0.0,0.0,100,0.00,,,0.03,Wunderground v.1.15,2013-03-03 05:47:00,
2013-03-02 21:57:00,44.6,44.6,30.16,WNW,299,0.0,0.0,100,0.00,,,0.03,Wunderground v.1.15,2013-03-03 05:57:00,
2013-03-02 22:07:00,45.1,45.1,30.17,NW,326,0.0,0.0,100,0.00,,,0.03,Wunderground v.1.15,2013-03-03 06:07:00,
2013-03-02 22:17:00,44.1,44.1,30.17,NW,306,0.0,0.0,100,0.00,,,0.03,Wunderground v.1.15,2013-03-03 06:17:00,
2013-03-02 22:27:00,43.8,43.8,30.17,WNW,291,0.0,0.0,100,0.00,,,0.03,Wunderground v.1.15,2013-03-03 06:27:00,
2013-03-02 22:32:00,43.8,43.8,30.17,NW,323,0.0,0.0,100,0.00,,,0.03,Wunderground v.1.15,2013-03-03 06:32:00,
2013-03-02 22:42:00,43.5,43.5,30.17,WNW,298,0.0,0.0,100,0.00,,,0.03,Wunderground v.1.15,2013-03-03 06:42:00,
2013-03-02 22:52:00,43.2,43.2,30.17,WNW,292,0.0,0.0,100,0.00,,,0.03,Wunderground v.1.15,2013-03-03 06:52:00,
2013-03-02 22:57:00,43.2,43.2,30.17,WNW,294,0.0,0.0,100,0.00,,,0.03,Wunderground v.1.15,2013-03-03 06:57:00,
2013-03-02 23:07:00,43.2,43.2,30.17,NW,304,0.0,0.0,100,0.00,,,0.03,Wunderground v.1.15,2013-03-03 07:07:00,
2013-03-02 23:17:00,43.5,43.5,30.18,NW,305,0.0,0.0,100,0.00,,,0.03,Wunderground v.1.15,2013-03-03 07:17:00,
2013-03-02 23:22:00,43.8,43.8,30.18,NW,316,0.0,0.0,100,0.00,,,0.03,Wunderground v.1.15,2013-03-03 07:22:00,
2013-03-02 23:32:00,44.1,44.1,30.18,NW,316,0.0,0.0,100,0.00,,,0.03,Wunderground v.1.15,2013-03-03 07:32:00,
2013-03-02 23:42:00,44.1,44.1,30.18,NW,319,0.0,0.0,100,0.00,,,0.03,Wunderground v.1.15,2013-03-03 07:42:00,
2013-03-02 23:47:00,44.1,44.1,30.19,NW,326,0.0,0.0,100,0.00,,,0.03,Wunderground v.1.15,2013-03-03 07:47:00,
2013-03-02 23:57:00,44.1,44.1,30.19,NW,326,0.0,0.0,100,0.00,,,0.03,Wunderground v.1.15,2013-03-03 07:57:00,